960  
ASUS46 KEKA 201613  
RWREKA  
EUREKA AREA WEATHER ROUNDUP  
NATIONAL WEATHER SERVICE EUREKA CA  
900 AM PDT WED JUN 20 2018  
 
NOTE: "FAIR" INDICATES FEW OR NO CLOUDS BELOW 12,000 FEET WITH NO  
SIGNIFICANT WEATHER AND/OR S TO VISIBILITY
.  
 
SOUTHWEST OREGON...  
 
CITY SKY/WX TMP DP RH WIND PRES REMARKS
 
MEDFORD SUNNY 70 51 51 VRB3 29.97F  
KLAMATH FALLS SUNNY 68 50 52 E5 30.10S  
NORTH BEND CLOUDY 57 55 94 W5 30.05S  
ROSEBURG SUNNY 66 55 67 N7 29.99S  
SEXTON SUMMIT SUNNY 69 49 48 VRB3 30.07S  
BROOKINGS FOG 53 52 96 VRB3 30.06R VSB<1/4  
 
NORTHWEST CALIFORNIA...  
 
CITY SKY/WX TMP DP RH WIND PRES REMARKS
 
CRESCENT CITY CLOUDY 55 53 93 SW5 30.06R  
MCKINLEYVILLE CLOUDY 56 53 90 CALM 30.05R  
EUREKA CLOUDY 55 32 41 CALM 30.06R  
FORTUNA CLOUDY 54 52 94 CALM 30.06S  
WEAVERVILLE N/A 66 50 55 SW5 30.03S  
TRINITY CENTER NOT AVBL  
UKIAH SUNNY 66 49 54 VRB3 30.00R  
 
NORTH & CENTRAL CALIFORNIA...  
 
CITY SKY/WX TMP DP RH WIND PRES REMARKS
 
YREKA SUNNY 72 46 39 N5 30.04S  
MOUNT SHASTA SUNNY 70 51 51 CALM 30.06S  
REDDING SUNNY 78 52 40 CALM 29.93S  
RED BLUFF SUNNY 76 57 51 CALM 29.95R  
CHICO NOT AVBL  
YUBA CITY SUNNY 69 54 58 SE8 29.96R  
SACRAMENTO SUNNY 62 53 72 S9 29.96R  
SANTA ROSA CLOUDY 54 50 86 SE5 30.01R  
NAPA CLOUDY 57 50 77 SW9 30.02R  
SAN FRANCISCO PTSUNNY 57 49 74 W12 30.04R  
OAKLAND CLOUDY 54 50 86 W9 30.05R  
SALINAS PTSUNNY 57 51 80 CALM 30.01F  
MONTEREY MOSUNNY 57 51 80 W8 30.02R  
 

 
 
 
CLICK HERE TO GO TO PREVIOUS BULLETINS.

The Nexlab CA Page Main Text Page